Location: Unspecified
(47.9110°N, 14.3980°E)
Time: 08:14:57
(UTC+00:00)

Helios 1B rocket - Pass Details

Date: 06 August 2020
Orbit: 575 x 583 km, 98.1° (Epoch: 26 September)

Event Time Altitude Azimuth Distance (km) Brightness Sun altitude
Rises 23:07:37 0° 22° (NNE) 2,800 7.0 -25.7°
Reaches altitude 10° 23:09:57 10° 32° (NNE) 1,896 5.8 -25.7°
Enters shadow 23:12:52 30° 73° (ENE) 1,051 3.8 -25.7°
